Weather History for McAlester, OK

Change the Weather History Date:

Friday, February 28, 2014

  Actual Average Record
Temperature  
Mean Temperature 47 °F -  
Max Temperature 57 °F 59 °F 83 °F (1980)
Min Temperature 37 °F 38 °F 11 °F (1962)
Degree Days  
Heating Degree Days 18    
Moisture  
Dew Point 34 °F    
Average Humidity 59    
Maximum Humidity 83    
Minimum Humidity 41    
Precipitation  
Precipitation 0.00 in - - ()
Sea Level Pressure  
Sea Level Pressure 29.82 in    
Wind  
Wind Speed 8 mph (SE)    
Max Wind Speed 17 mph    
Max Gust Speed 25 mph    
Visibility 10 miles    
Events Rain    
Averages and records for this station are not official NWS values.
T = Trace of Precipitation, MM = Missing Value Source: NWS Daily Summary

Daily Weather History Graph

Daily Weather History Graph

Search for Another Location

Airport:

Trip Planner

Search our weather history database for the weather conditions in past years. The results will help you decide how hot, cold, wet, or windy it might be!

Date:

Astronomy

Feb. 28, 2014 Rise Set
Actual Time 6:53 AM CST 6:18 PM CST
Civil Twilight 6:28 AM CST 6:43 PM CST
Nautical Twilight 5:59 AM CST 7:12 PM CST
Astronomical Twilight 5:29 AM CST 7:42 PM CST
Moon 6:08 AM CST (2/28) 5:55 PM CST (2/28)
Length of Visible Light 12h 15m
Length of Day
11h 24m
Waning Crescent, 1% of the Moon is Illuminated
Feb 28
Waning Crescent
Mar 1
New
Mar 8
First Quarter
Mar 16
Full
Mar 23
Last Quarter

Hourly Weather History & Observations

Time (CST) Temp. Windchill Dew Point Humidity Pressure Visibility Wind Dir Wind Speed Gust Speed Precip Events Conditions
12:53 AM 37.0 °F 33.3 °F 18.0 °F 46% 29.87 in 10.0 mi ESE 4.6 mph - N/A   Partly Cloudy
1:53 AM 39.0 °F 33.4 °F 18.0 °F 43% 29.85 in 10.0 mi SE 8.1 mph - N/A   Clear
2:53 AM 39.9 °F 35.8 °F 18.0 °F 41% 29.83 in 10.0 mi SE 5.8 mph - N/A   Partly Cloudy
3:53 AM 43.0 °F 37.7 °F 21.0 °F 42% 29.79 in 10.0 mi SSE 9.2 mph - N/A   Scattered Clouds
4:53 AM 45.0 °F 41.2 °F 24.1 °F 44% 29.80 in 10.0 mi SSE 6.9 mph - N/A   Clear
5:53 AM 45.0 °F 40.1 °F 25.0 °F 46% 29.78 in 10.0 mi SE 9.2 mph - 0.00 in Rain Light Rain
6:53 AM 44.1 °F 37.7 °F 26.1 °F 49% 29.75 in 10.0 mi SE 12.7 mph 24.2 mph 0.00 in   Partly Cloudy
7:53 AM 44.1 °F 39.0 °F 28.0 °F 53% 29.78 in 10.0 mi SSE 9.2 mph 19.6 mph 0.00 in   Overcast
8:53 AM 44.1 °F 39.0 °F 30.0 °F 58% 29.78 in 10.0 mi SE 9.2 mph 18.4 mph 0.00 in Rain Light Rain
9:53 AM 48.0 °F - 33.1 °F 56% 29.78 in 10.0 mi SSE 9.2 mph 23.0 mph N/A   Partly Cloudy
10:18 AM 48.2 °F - 33.8 °F 58% 29.79 in 10.0 mi South 11.5 mph 21.9 mph N/A   Mostly Cloudy
10:53 AM 48.9 °F - 34.0 °F 56% 29.80 in 10.0 mi South 11.5 mph 24.2 mph N/A   Overcast
11:43 AM 51.8 °F - 35.6 °F 54% 29.78 in 10.0 mi SSE 17.3 mph 25.3 mph N/A   Mostly Cloudy
11:53 AM 53.1 °F - 36.0 °F 52% 29.78 in 10.0 mi SSE 11.5 mph 20.7 mph N/A   Scattered Clouds
12:53 PM 55.0 °F - 37.9 °F 53% 29.75 in 10.0 mi South 9.2 mph 20.7 mph N/A   Mostly Cloudy
1:53 PM 55.0 °F - 37.9 °F 53% 29.76 in 10.0 mi South 11.5 mph 18.4 mph N/A   Overcast
2:53 PM 57.0 °F - 39.0 °F 51% 29.75 in 10.0 mi SSE 9.2 mph - N/A   Mostly Cloudy
3:53 PM 57.0 °F - 39.9 °F 53% 29.76 in 10.0 mi South 5.8 mph - N/A   Scattered Clouds
4:53 PM 55.9 °F - 39.9 °F 55% 29.77 in 10.0 mi ESE 9.2 mph - N/A   Partly Cloudy
5:53 PM 52.0 °F - 39.0 °F 61% 29.79 in 10.0 mi ESE 9.2 mph - N/A   Scattered Clouds
6:53 PM 46.9 °F - 39.9 °F 77% 29.83 in 10.0 mi ESE 6.9 mph - N/A   Scattered Clouds
7:26 PM 46.4 °F 44.3 °F 39.2 °F 76% 29.85 in 10.0 mi East 4.6 mph - N/A   Mostly Cloudy
7:53 PM 48.0 °F - 41.0 °F 77% 29.86 in 10.0 mi Variable 6.9 mph - N/A   Overcast
8:53 PM 46.9 °F - 41.0 °F 80% 29.90 in 10.0 mi ESE 6.9 mph - N/A   Overcast
9:05 PM 46.4 °F 43.5 °F 41.0 °F 81% 29.90 in 10.0 mi Variable 5.8 mph - N/A   Overcast
9:53 PM 46.9 °F - 41.0 °F 80% 29.92 in 10.0 mi East 4.6 mph - N/A   Overcast
10:53 PM 46.0 °F 43.1 °F 41.0 °F 83% 29.95 in 10.0 mi ENE 5.8 mph - N/A   Overcast
11:53 PM 46.0 °F 43.1 °F 41.0 °F 83% 29.96 in 9.0 mi ENE 5.8 mph - N/A   Overcast